Location: Ailly
(50.0793°N, 1.9944°E)
Time: 06:41:20
(UTC+00:00)

Cosmos 2297 Rocket - Pass Details

Date: 15 January 2026
Orbit: 838 x 843 km, 71.0° (Epoch: 17 February)

Event Time Altitude Azimuth Distance (km) Brightness Sun altitude
Exits shadow 06:58:55 - 333° (NNW) 3,310 4.8 -7.3°
Reaches altitude 10° 07:02:14 10° 355° (N) 2,475 4.4 -6.8°
Maximum altitude 07:05:23 15° 29° (NNE) 2,141 4.4 -6.4°
Drops below altitude 10° 07:08:32 10° 63° (ENE) 2,470 5.2 -5.9°
Sets 07:12:10 0° 87° (E) 3,401 6.5 -5.4°
